Hagerstown, MD

12:42 AM EDT on July 23, 2017 (GMT -0400)
Hagerstown Regional-Henson

Weather History for KHGR - July, 2012

Change the Weather History Date:

Friday, July 13, 2012

  Actual Average Record
Temperature  
Mean Temperature 78 °F 76 °F  
Max Temperature 84 °F 86 °F 91 °F (1997)
Min Temperature 71 °F 66 °F 54 °F (2001)
Degree Days  
Heating Degree Days 0 0  
Month to date heating degree days 0 0  
Since 1 June heating degree days 10 18  
Since 1 July heating degree days 0 0  
Cooling Degree Days 13 11  
Month to date cooling degree days 217 136  
Year to date cooling degree days 585 421  
Since 1 June cooling degree days 429 345  
Growing Degree Days 28 (Base 50)    
Moisture  
Dew Point 60 °F    
Average Humidity 59    
Maximum Humidity 73    
Minimum Humidity 44    
Precipitation  
Precipitation T in 0.11 in 0.92 in (2005)
Month to date precipitation 0.34 1.26  
Year to date precipitation 17.04 21.34  
Sea Level Pressure  
Sea Level Pressure 30.23 in    
Wind  
Wind Speed 4 mph (NW)    
Max Wind Speed 9 mph    
Max Gust Speed 10 mph    
Visibility 10 miles    
Events Rain    
T = Trace of Precipitation, MM = Missing Value Source: NWS Daily Summary

Daily Weather History Graph

Daily Weather History Graph

Search for Another Location

Airport or City:

Trip Planner

Search our weather history database for the weather conditions in past years. The results will help you decide how hot, cold, wet, or windy it might be!

Date:

Astronomy

Jul. 13, 2012 Rise Set
Actual Time 5:54 AM EDT 8:38 PM EDT
Civil Twilight 5:22 AM EDT 9:10 PM EDT
Nautical Twilight 4:42 AM EDT 9:50 PM EDT
Astronomical Twilight 3:57 AM EDT 10:35 PM EDT
Moon 1:30 AM EDT (7/13) 4:06 PM EDT (7/13)
Length of Visible Light 15h 47m
Length of Day
14h 44m
Waning Crescent, 26% of the Moon is Illuminated
Jul 13
Waning Crescent
Jul 19
New
Jul 26
First Quarter
Aug 1
Full
Aug 9
Last Quarter

Hourly Weather History & Observations

Time (EDT) Temp. Heat Index Dew Point Humidity Pressure Visibility Wind Dir Wind Speed Gust Speed Precip Events Conditions
12:53 AM 75.0 °F - 60.1 °F 60% 30.21 in 10.0 mi South 4.6 mph - N/A   Clear
1:53 AM 73.9 °F - 60.1 °F 62% 30.22 in 10.0 mi SSE 3.5 mph - N/A   Clear
2:53 AM 73.9 °F - 60.1 °F 62% 30.21 in 10.0 mi Calm Calm - N/A   Clear
3:53 AM 73.0 °F - 60.1 °F 64% 30.21 in 10.0 mi Calm Calm - N/A   Clear
4:53 AM 72.0 °F - 60.1 °F 66% 30.22 in 10.0 mi East 4.6 mph - N/A   Clear
5:53 AM 73.0 °F - 59.0 °F 61% 30.23 in 10.0 mi East 4.6 mph - N/A   Clear
6:53 AM 72.0 °F - 60.1 °F 66% 30.23 in 10.0 mi SSE 3.5 mph - N/A   Clear
7:53 AM 72.0 °F - 63.0 °F 73% 30.25 in 10.0 mi West 3.5 mph - N/A   Mostly Cloudy
8:53 AM 75.0 °F - 61.0 °F 62% 30.25 in 10.0 mi WSW 4.6 mph - N/A   Scattered Clouds
9:53 AM 79.0 °F - 60.1 °F 52% 30.24 in 10.0 mi Calm Calm - N/A   Mostly Cloudy
10:53 AM 79.0 °F - 60.1 °F 52% 30.26 in 10.0 mi West 4.6 mph - 0.00 in   Scattered Clouds
11:53 AM 79.0 °F - 61.0 °F 54% 30.26 in 10.0 mi WNW 3.5 mph - N/A   Overcast
12:53 PM 84.0 °F 84.4 °F 61.0 °F 46% 30.25 in 10.0 mi West 5.8 mph - N/A   Partly Cloudy
1:53 PM 82.0 °F 82.1 °F 59.0 °F 45% 30.25 in 10.0 mi WNW 4.6 mph - 0.00 in   Overcast
2:53 PM 80.1 °F 80.9 °F 60.1 °F 50% 30.25 in 10.0 mi WNW 8.1 mph - 0.00 in   Overcast
3:53 PM 79.0 °F - 61.0 °F 54% 30.25 in 10.0 mi West 4.6 mph - 0.00 in Rain Light Rain
4:53 PM 78.1 °F - 61.0 °F 56% 30.24 in 10.0 mi NNW 6.9 mph - 0.00 in   Overcast
5:53 PM 78.1 °F - 59.0 °F 52% 30.23 in 10.0 mi NNW 6.9 mph - N/A   Overcast
6:53 PM 77.0 °F - 57.0 °F 50% 30.22 in 10.0 mi NNW 5.8 mph - N/A   Mostly Cloudy
7:53 PM 75.9 °F - 60.1 °F 58% 30.22 in 10.0 mi NNE 3.5 mph - N/A   Overcast
8:53 PM 75.0 °F - 59.0 °F 57% 30.21 in 10.0 mi ENE 4.6 mph - N/A   Overcast
9:53 PM 75.0 °F - 60.1 °F 60% 30.22 in 10.0 mi Calm Calm - N/A   Overcast
10:53 PM 71.1 °F - 64.9 °F 81% 30.23 in 8.0 mi NNW 4.6 mph - 0.00 in Rain Light Rain
11:53 PM 70.0 °F - 64.9 °F 84% 30.23 in 9.0 mi North 3.5 mph - 0.01 in   Overcast